SYRACUSE 3B

Last updated on Aug. 7, 2020, 5:35 a.m. UTC

1 29273U 06033B   20219.80220089 -.00000056  00000-0  00000-0 0  9990
2 29273   0.0205 110.3417 0005933  17.0836 111.9300  1.00272196 51249
UTC
Height (km)
Latitude
Longitude
Inclination
Orbital Period
UTC large
Height (km)
Speed (km/s)
/
Latitude / Longitude
Inclination (degrees)
Orbital Period (minutes)
Azimuth
Elevation
Range (km)
Doppler Factor
iOS Compass Heading
iOS Angle

Next 30 passes for location: Hong Kong

Rise time Rise Azimuth (degrees) Set time Set Azimuth (degrees) Duration Max altitude (degrees)

No matching passes for this satellites